Regional Weather Roundup
Issued by NWS Charleston, SC

Current Version | Previous Version | Graphics & Text | Print | Product List | Glossary On
Versions: 1 2 3 4 5 6 7 8 9 10 11 12 13 14 15 16 17 18 19 20 21 22 23 24 25 26 27 28 29 30 31 32 33 34 35 36 37 38 39 40 41 42 43 44 45 46 47 48 49 50
000
ASUS42 KCHS 282125
RWRCHS

REGIONAL WEATHER ROUNDUP
NATIONAL WEATHER SERVICE CHARLESTON SC
500 PM EDT THU AUG 28 2014

NOTE: "FAIR" INDICATES FEW OR NO CLOUDS BELOW 12,000 FEET WITH NO
SIGNIFICANT WEATHER AND/OR OBSTRUCTIONS TO VISIBILITY.

NOT ALL STATIONS ARE QUALITY CONTROLLED BY THE NATIONAL
WEATHER SERVICE. USE DATA WITH CAUTION...ESPECIALLY
DEWPOINT OBSERVATIONS.

SCZ027-030-031-034>040-042>050-282200-
...SOUTH CAROLINA...

CITY           SKY/WX    TMP DP  RH WIND       PRES   REMARKS
N CHARLESTON   MOSUNNY   91  62  37 S13       29.98S HX  91
WATERFRONT PRK   N/A     84 N/A N/A S14         N/A
FORT JOHNSON   NOT AVBL
MOUNT PLEASANT FAIR      88  66  48 S9        29.99S HX  90
JOHNS ISLAND   CLEAR     86  66  51 S10       30.00R
PINOPOLIS        N/A     93  61  33 NE3       29.89F HX  93
MONCKS CORNER    N/A     91  66  43 CALM      29.98R HX  94
SUMMERVILLE    FAIR      91  61  35 W3        29.99R HX  91
BEAUFORT MCAS  SUNNY     89  65  44 S5        29.99S HX  91
BEAUFORT ARPT  FAIR      86  64  48 SE5       29.99S
HILTON HEAD IS SUNNY     86  66  51 SE6       30.02S
GEORGETOWN     NOT AVBL
WALTERBORO     CLEAR     93  48  21 S7        29.98S HX  90
ORANGEBURG     SUNNY     93  47  20 S5        29.97S
BARNWELL       FAIR      97  52  21 SW3       29.97S HX  94
AIKEN          FAIR      97  57  26 E5        30.00S HX  95
MANNING        FAIR      93  55  27 S3        29.97S HX  91
KINGSTREE      NOT AVBL
COLUMBIA       MOSUNNY   95  56  26 SE8       29.95F HX  93
SUMTER         SUNNY     95  60  31 E5        29.95S HX  94
FLORENCE       SUNNY     93  60  33 VRB3      29.95F HX  93
MYRTLE BEACH   SUNNY     88  68  51 S12       29.98S HX  91
N MYRTLE BEACH SUNNY     85  70  60 S13       29.97

$$

GAZ063-065-086>088-099>101-113>116-118-119-134-136>141-150-282200-
...GEORGIA...

CITY           SKY/WX    TMP DP  RH WIND       PRES   REMARKS
SAVANNAH ARPT  MOSUNNY   89  60  37 SE8       30.00R
HUNTER AAF     SUNNY     88  64  43 E8        29.98S
FORT STEWART   SUNNY     90  60  36 SE8       29.98S
STATESBORO     NOT AVBL
SYLVANIA       CLEAR     92  63  38 S6        29.99S HX  93
CLAXTON        NOT AVBL
THOMSON        SUNNY     95  62  33 S3        30.01S HX  96
AUGUSTA-BUSH   SUNNY     94  46  19 SE7       29.96S HX  90
AUGUSTA-DANIEL SUNNY     95  47  19 SE6       29.98S HX  91
SWAINSBORO     FAIR      97  55  24 S3        29.98S HX  95
VIDALIA          N/A     95  61  31 E6        29.97F HX  95
ALMA           SUNNY     91  58  32 S5        29.98F HX  90
WAYCROSS       SUNNY     95  61  31 NE6       29.97S HX  95
JESUP            N/A     95  66  38 SE5       29.98S HX  98
BRUNSWICK      SUNNY     86  64  48 E7        30.00S
SAINT SIMONS   MOSUNNY   84  71  65 E12       30.00F

$$

SCZ027-028-034-036>038-045-046-048>050-GAZ119-141-282200-
...LAKE AND SUPPLEMENTAL COASTAL OBSERVATIONS...

STATION/POSITION TIME  TEMP    WIND        PRES    WAVE   SWELL
                       AIR SEA DIR/SP/G            HT/PER HT/PER/DIR
                 (UTC) (F)     (DEG/KT/KT) (MB)    (FT/S) (FT/S/D)
UPR LAKE MARION  NOT AVBL
WINYAH BAY       2100   86     150/  8     1015.0S
LAKE MURRAY      2000   95     170/  3/  3 1013.9F
ACE BASIN NERRS  2100   86     170/  2     1016.0S
FORT PULASKI     2100   84     150/  5/  8 1016.2F
SAPELO ISLAND    2100   86     100/  8     1017.0S

$$

ANZ835-935-AMZ111-154-330-350-352-354-374-450-454-472-282200-
...C-MAN AND BUOY OBSERVATIONS...

STATION/POSITION TIME  TEMP    WIND        PRES    WAVE   SWELL
                       AIR SEA DIR/SP/G            HT/PER HT/PER/DIR
                 (UTC) (F)     (DEG/KT/KT) (MB)    (FT/S) (FT/S/D)
FOLLY BEACH CMAN 2100   83     190/ 11/ 13 1016.2R
BUOY 41004       2100   81 84  230/  6/ 10 1015.8R   4/11   3/11
BUOY 41008       2100   81 85   80/  8/ 10 1016.1F   3/10   3/ 90/10
5E ST. MARYS GA  2100      85                N/A     3/10   2/100/11
FRYING PAN BUOY  NOT AVBL
BUOY 41025       2100   82     230/ 12/ 14 1014.3R   5/10   5/140/10
CAPE LOOKOUT NC  2100   82     240/ 10/ 12 1014.6S
BUOY 41002       2046   81 83  230/  6/  8 1016.9S   5/ 8   5/ 60/ 8
BUOY 41010       2100   83 85  130/  4/  4 1016.0S   6/ 9   7/ 40/ 9
BUOY 41012       NOT AVBL
ST AUGUSTINE FL  2100   81      60/  9/ 11 1016.0F
CAPERS NEARSHORE 2000   83     200/ 12/ 14   N/A
FRIPP NEARSHORE  NOT AVBL


$$



USA.gov is the U.S. government's official web portal to all federal, state and local government web resources and services.